UAL1728 KDEN-KMKE

Flight info

Callsign UAL1728
Flight time 1h 54m
Altitude 35000
Route EEONS8 WYNDM OBH OGECA GOPAC3
Aircraft A319/M-SDE3FGHIRWY/LB1

Departure

Time 2026-04-21 22:53
Airport Denver International Airport (KDEN)

Arrival

Time 2026-04-22 00:47
Airport General Mitchell International Airport (KMKE)
Time Latitude Longitude Altitude Speed Heading
2026-04-21 22:26 39.85804 -104.67679 5364 ft 0 kts 360°
2026-04-21 22:40 39.85783 -104.67679 5363 ft 4 kts 359°
2026-04-21 22:41 39.85757 -104.67682 5363 ft 4 kts 24°
2026-04-21 22:41 39.85740 -104.67702 5362 ft 4 kts 77°
2026-04-21 22:41 39.85738 -104.67717 5363 ft 1 kts 90°
2026-04-21 22:41 39.85738 -104.67718 5363 ft 0 kts 90°
2026-04-21 22:45 39.85738 -104.67717 5363 ft 1 kts 90°
2026-04-21 22:46 39.85738 -104.67703 5362 ft 2 kts 89°
2026-04-21 22:46 39.85739 -104.67675 5363 ft 4 kts 86°
2026-04-21 22:46 39.85738 -104.67632 5364 ft 6 kts 94°
2026-04-21 22:46 39.85737 -104.67555 5366 ft 12 kts 90°
2026-04-21 22:47 39.85736 -104.67406 5366 ft 21 kts 91°
2026-04-21 22:47 39.85734 -104.67204 5366 ft 21 kts 90°
2026-04-21 22:47 39.85731 -104.67004 5366 ft 24 kts 90°
2026-04-21 22:47 39.85723 -104.66844 5366 ft 14 kts 120°
2026-04-21 22:48 39.85662 -104.66766 5365 ft 14 kts 103°
2026-04-21 22:48 39.85660 -104.66641 5366 ft 14 kts 89°
2026-04-21 22:48 39.85676 -104.66505 5365 ft 16 kts 80°
2026-04-21 22:48 39.85702 -104.66360 5364 ft 18 kts 34°
2026-04-21 22:49 39.85828 -104.66349 5365 ft 19 kts 358°
2026-04-21 22:49 39.85965 -104.66348 5364 ft 20 kts
2026-04-21 22:49 39.86109 -104.66345 5364 ft 21 kts
2026-04-21 22:49 39.86261 -104.66343 5365 ft 22 kts
2026-04-21 22:50 39.86421 -104.66341 5364 ft 23 kts
2026-04-21 22:50 39.86588 -104.66339 5364 ft 25 kts
2026-04-21 22:50 39.86763 -104.66336 5365 ft 26 kts
2026-04-21 22:50 39.86944 -104.66333 5365 ft 26 kts
2026-04-21 22:51 39.87132 -104.66330 5364 ft 27 kts
2026-04-21 22:51 39.87326 -104.66327 5364 ft 28 kts
2026-04-21 22:51 39.87482 -104.66292 5364 ft 17 kts 61°
2026-04-21 22:51 39.87562 -104.66204 5364 ft 17 kts
2026-04-21 22:52 39.87681 -104.66208 5365 ft 18 kts
2026-04-21 22:52 39.87761 -104.66128 5366 ft 16 kts 85°
2026-04-21 22:52 39.87759 -104.65973 5366 ft 19 kts 89°
2026-04-21 22:52 39.87760 -104.65680 5366 ft 53 kts 90°
2026-04-21 22:53 39.87752 -104.64988 5366 ft 100 kts 92°
2026-04-21 22:53 39.87742 -104.63868 5365 ft 147 kts 90°
2026-04-21 22:53 39.87717 -104.62401 5642 ft 167 kts 94°
2026-04-21 22:53 39.87692 -104.60887 6389 ft 167 kts 94°
2026-04-21 22:54 39.87690 -104.59289 6646 ft 187 kts 92°
2026-04-21 22:54 39.87757 -104.57489 6872 ft 213 kts 80°
2026-04-21 22:54 39.88210 -104.55533 7157 ft 238 kts 76°
2026-04-21 22:54 39.88722 -104.53372 7511 ft 262 kts 75°
2026-04-21 22:55 39.89274 -104.51014 8029 ft 278 kts 75°
2026-04-21 22:55 39.89842 -104.48576 8797 ft 284 kts 75°
2026-04-21 22:55 39.90417 -104.46095 9607 ft 289 kts 75°
2026-04-21 22:55 39.91003 -104.43560 10208 ft 301 kts 76°
2026-04-21 22:56 39.91629 -104.40844 10432 ft 325 kts 75°
2026-04-21 22:56 39.92290 -104.37939 10771 ft 341 kts 76°
2026-04-21 22:56 39.92955 -104.34945 11389 ft 347 kts 76°
2026-04-21 22:56 39.93619 -104.31899 12037 ft 352 kts 77°
2026-04-21 22:57 39.94287 -104.28811 12709 ft 357 kts 76°
2026-04-21 22:57 39.94956 -104.25720 13384 ft 361 kts 77°
2026-04-21 22:57 39.95645 -104.22548 13997 ft 366 kts 76°
2026-04-21 22:57 39.96355 -104.19290 14632 ft 370 kts 75°
2026-04-21 22:58 39.97049 -104.16088 15254 ft 374 kts 77°
2026-04-21 22:58 39.97516 -104.12732 15871 ft 377 kts 83°
2026-04-21 22:58 39.97891 -104.09325 16492 ft 382 kts 83°
2026-04-21 22:58 39.98269 -104.05872 17132 ft 387 kts 83°
2026-04-21 22:59 39.98649 -104.02381 17759 ft 391 kts 83°
2026-04-21 22:59 39.99031 -103.98838 18365 ft 396 kts 83°
2026-04-21 22:59 39.99414 -103.95267 18935 ft 400 kts 83°
2026-04-21 22:59 39.99810 -103.91650 19517 ft 404 kts 82°
2026-04-21 23:00 40.00294 -103.88028 20103 ft 408 kts 79°
2026-04-21 23:00 40.00865 -103.84386 20687 ft 411 kts 78°
2026-04-21 23:00 40.01478 -103.80733 21290 ft 414 kts 77°
2026-04-21 23:00 40.02104 -103.77054 21850 ft 417 kts 77°
2026-04-21 23:01 40.02727 -103.73388 22381 ft 421 kts 77°
2026-04-21 23:01 40.03363 -103.69636 22895 ft 425 kts 77°
2026-04-21 23:01 40.03997 -103.65850 23393 ft 429 kts 77°
2026-04-21 23:01 40.04629 -103.62028 23828 ft 432 kts 77°
2026-04-21 23:02 40.05258 -103.58182 24272 ft 435 kts 77°
2026-04-21 23:02 40.05883 -103.54319 24717 ft 437 kts 78°
2026-04-21 23:02 40.06510 -103.50430 25171 ft 439 kts 78°
2026-04-21 23:02 40.07140 -103.46515 25592 ft 441 kts 78°
2026-04-21 23:03 40.07776 -103.42580 25999 ft 445 kts 78°
2026-04-21 23:03 40.08418 -103.38620 26519 ft 447 kts 78°
2026-04-21 23:03 40.09064 -103.34638 26952 ft 450 kts 78°
2026-04-21 23:03 40.09712 -103.30632 27396 ft 451 kts 78°
2026-04-21 23:04 40.10362 -103.26602 27794 ft 454 kts 78°
2026-04-21 23:04 40.11010 -103.22556 28226 ft 456 kts 78°
2026-04-21 23:04 40.11659 -103.18483 28586 ft 459 kts 78°
2026-04-21 23:04 40.12310 -103.14390 29007 ft 461 kts 78°
2026-04-21 23:05 40.12960 -103.10283 29270 ft 463 kts 78°
2026-04-21 23:05 40.13613 -103.06159 29705 ft 464 kts 78°
2026-04-21 23:05 40.14266 -103.02024 30056 ft 466 kts 78°
2026-04-21 23:05 40.14921 -102.97879 30359 ft 468 kts 78°
2026-04-21 23:06 40.15580 -102.93695 30631 ft 470 kts 78°
2026-04-21 23:06 40.16240 -102.89497 30895 ft 474 kts 78°
2026-04-21 23:06 40.16904 -102.85272 31193 ft 475 kts 78°
2026-04-21 23:06 40.17570 -102.81041 31565 ft 475 kts 78°
2026-04-21 23:07 40.18235 -102.76815 31976 ft 474 kts 78°
2026-04-21 23:07 40.18896 -102.72586 32350 ft 474 kts 78°
2026-04-21 23:07 40.19545 -102.68404 32789 ft 473 kts 78°
2026-04-21 23:07 40.20196 -102.64180 33178 ft 473 kts 78°
2026-04-21 23:08 40.20844 -102.59971 33615 ft 472 kts 78°
2026-04-21 23:08 40.21491 -102.55757 34014 ft 472 kts 78°
2026-04-21 23:08 40.22137 -102.51555 34404 ft 471 kts 78°
2026-04-21 23:08 40.22783 -102.47351 34737 ft 471 kts 78°
2026-04-21 23:09 40.23428 -102.43153 34843 ft 469 kts 78°
2026-04-21 23:09 40.24065 -102.38987 34868 ft 465 kts 78°
2026-04-21 23:09 40.25320 -102.30711 34861 ft 462 kts 78°
2026-04-21 23:10 40.26559 -102.22446 34857 ft 462 kts 78°
2026-04-21 23:10 40.27800 -102.14174 34859 ft 463 kts 78°
2026-04-21 23:11 40.29039 -102.05896 34854 ft 462 kts 78°
2026-04-21 23:11 40.30265 -101.97691 34857 ft 462 kts 78°
2026-04-21 23:12 40.31487 -101.89424 34872 ft 462 kts 78°
2026-04-21 23:12 40.32705 -101.81139 34888 ft 462 kts 78°
2026-04-21 23:13 40.33924 -101.72867 34898 ft 463 kts 78°
2026-04-21 23:13 40.35132 -101.64586 34915 ft 462 kts 78°
2026-04-21 23:14 40.36329 -101.56303 34923 ft 461 kts 78°
2026-04-21 23:14 40.37517 -101.48052 34919 ft 460 kts 78°
2026-04-21 23:15 40.38763 -101.41293 34911 ft 459 kts 69°
2026-04-21 23:15 40.41741 -101.32404 34896 ft 458 kts 64°
2026-04-21 23:16 40.44333 -101.24784 34871 ft 457 kts 65°
2026-04-21 23:16 40.46493 -101.18397 34871 ft 456 kts 65°
2026-04-21 23:17 40.49044 -101.10835 34873 ft 456 kts 65°
2026-04-21 23:17 40.51607 -101.03233 34868 ft 455 kts 65°
2026-04-21 23:18 40.54175 -100.95614 34862 ft 455 kts 65°
2026-04-21 23:18 40.56732 -100.88005 34861 ft 455 kts 65°
2026-04-21 23:19 40.59277 -100.80375 34861 ft 455 kts 65°
2026-04-21 23:19 40.61819 -100.72744 34860 ft 455 kts 65°
2026-04-21 23:20 40.64358 -100.65122 34864 ft 455 kts 65°
2026-04-21 23:20 40.66890 -100.57483 34857 ft 455 kts 65°
2026-04-21 23:21 40.69403 -100.49890 34867 ft 455 kts 65°
2026-04-21 23:21 40.71929 -100.42248 34861 ft 454 kts 65°
2026-04-21 23:22 40.74443 -100.34595 34860 ft 454 kts 65°
2026-04-21 23:22 40.76950 -100.26948 34858 ft 454 kts 65°
2026-04-21 23:23 40.79454 -100.19289 34870 ft 454 kts 65°
2026-04-21 23:23 40.81948 -100.11634 34882 ft 453 kts 65°
2026-04-21 23:24 40.84444 -100.03984 34890 ft 453 kts 65°
2026-04-21 23:24 40.86934 -99.96340 34891 ft 453 kts 65°
2026-04-21 23:25 40.89401 -99.88733 34898 ft 453 kts 65°
2026-04-21 23:25 40.91873 -99.81075 34908 ft 453 kts 65°
2026-04-21 23:26 40.94332 -99.73404 34901 ft 453 kts 65°
2026-04-21 23:26 40.96788 -99.65723 34883 ft 453 kts 65°
2026-04-21 23:27 40.99250 -99.58029 34870 ft 453 kts 65°
2026-04-21 23:27 41.01694 -99.50385 34866 ft 454 kts 65°
2026-04-21 23:28 41.04146 -99.42691 34867 ft 454 kts 64°
2026-04-21 23:28 41.06590 -99.34982 34871 ft 453 kts 65°
2026-04-21 23:29 41.09028 -99.27273 34871 ft 453 kts 65°
2026-04-21 23:29 41.11462 -99.19551 34875 ft 453 kts 65°
2026-04-21 23:30 41.13891 -99.11838 34871 ft 453 kts 65°
2026-04-21 23:30 41.16320 -99.04119 34884 ft 453 kts 64°
2026-04-21 23:31 41.18730 -98.96405 34891 ft 452 kts 65°
2026-04-21 23:31 41.21136 -98.88683 34892 ft 452 kts 65°
2026-04-21 23:32 41.23538 -98.80959 34891 ft 453 kts 64°
2026-04-21 23:32 41.25939 -98.73220 34889 ft 453 kts 64°
2026-04-21 23:33 41.28332 -98.65469 34901 ft 453 kts 64°
2026-04-21 23:33 41.30726 -98.57717 34898 ft 453 kts 64°
2026-04-21 23:34 41.33112 -98.49965 34894 ft 453 kts 64°
2026-04-21 23:34 41.35489 -98.42207 34899 ft 453 kts 64°
2026-04-21 23:35 41.37825 -98.34419 34895 ft 454 kts 66°
2026-04-21 23:35 41.39821 -98.26431 34911 ft 455 kts 69°
2026-04-21 23:36 41.41598 -98.18322 34902 ft 455 kts 70°
2026-04-21 23:36 41.43384 -98.10231 34902 ft 455 kts 70°
2026-04-21 23:37 41.45234 -98.02167 34896 ft 455 kts 69°
2026-04-21 23:37 41.47101 -97.94119 34907 ft 454 kts 69°
2026-04-21 23:38 41.48954 -97.86061 34920 ft 454 kts 69°
2026-04-21 23:38 41.50775 -97.78058 34910 ft 454 kts 69°
2026-04-21 23:39 41.52608 -97.69983 34909 ft 454 kts 69°
2026-04-21 23:39 41.54441 -97.61897 34900 ft 455 kts 69°
2026-04-21 23:40 41.56266 -97.53798 34911 ft 456 kts 69°
2026-04-21 23:40 41.58083 -97.45691 34912 ft 456 kts 69°
2026-04-21 23:41 41.59898 -97.37585 34911 ft 456 kts 69°
2026-04-21 23:41 41.61709 -97.29465 34909 ft 455 kts 69°
2026-04-21 23:42 41.63507 -97.21356 34904 ft 455 kts 69°
2026-04-21 23:42 41.65303 -97.13244 34901 ft 455 kts 69°
2026-04-21 23:43 41.67085 -97.05130 34898 ft 455 kts 69°
2026-04-21 23:43 41.68866 -96.97005 34892 ft 455 kts 69°
2026-04-21 23:44 41.70633 -96.88932 34896 ft 455 kts 69°
2026-04-21 23:44 41.72409 -96.80785 34909 ft 455 kts 69°
2026-04-21 23:45 41.75057 -96.68578 34903 ft 455 kts 69°
2026-04-21 23:46 41.76810 -96.60442 34896 ft 454 kts 69°
2026-04-21 23:46 41.78562 -96.52313 34901 ft 454 kts 69°
2026-04-21 23:47 41.80303 -96.44182 34922 ft 454 kts 69°
2026-04-21 23:47 41.82024 -96.36101 34920 ft 454 kts 69°
2026-04-21 23:48 41.83756 -96.27950 34914 ft 454 kts 69°
2026-04-21 23:48 41.85487 -96.19813 34914 ft 454 kts 69°
2026-04-21 23:49 41.87210 -96.11658 34900 ft 454 kts 69°
2026-04-21 23:49 41.88919 -96.03496 34910 ft 454 kts 68°
2026-04-21 23:50 41.90624 -95.95345 34909 ft 454 kts 68°
2026-04-21 23:50 41.92326 -95.87184 34903 ft 454 kts 69°
2026-04-21 23:51 41.94025 -95.79023 34900 ft 454 kts 69°
2026-04-21 23:51 41.95711 -95.70851 34923 ft 454 kts 68°
2026-04-21 23:52 41.97381 -95.62736 34923 ft 453 kts 68°
2026-04-21 23:52 41.99054 -95.54567 34935 ft 453 kts 68°
2026-04-21 23:53 42.00726 -95.46394 34944 ft 453 kts 68°
2026-04-21 23:53 42.02391 -95.38207 34936 ft 454 kts 69°
2026-04-21 23:54 42.04045 -95.30011 34965 ft 453 kts 68°
2026-04-21 23:54 42.05692 -95.21836 34945 ft 453 kts 68°
2026-04-21 23:55 42.07341 -95.13662 34939 ft 452 kts 68°
2026-04-21 23:55 42.08988 -95.05486 34928 ft 452 kts 68°
2026-04-21 23:56 42.10617 -94.97302 34921 ft 452 kts 69°
2026-04-21 23:56 42.12244 -94.89109 34931 ft 452 kts 68°
2026-04-21 23:57 42.13850 -94.80983 34924 ft 452 kts 69°
2026-04-21 23:57 42.15460 -94.72785 34920 ft 452 kts 69°
2026-04-21 23:58 42.17066 -94.64598 34924 ft 452 kts 69°
2026-04-21 23:58 42.18675 -94.56383 34940 ft 452 kts 68°
2026-04-21 23:59 42.20272 -94.48184 34937 ft 452 kts 69°
2026-04-21 23:59 42.21855 -94.39981 34938 ft 451 kts 69°
2026-04-22 00:00 42.23439 -94.31788 34932 ft 451 kts 69°
2026-04-22 00:00 42.25021 -94.23582 34927 ft 451 kts 69°
2026-04-22 00:01 42.26325 -94.16758 34939 ft 451 kts 69°
2026-04-22 00:01 42.28144 -94.07206 34921 ft 451 kts 69°
2026-04-22 00:02 42.29709 -93.99006 34914 ft 451 kts 69°
2026-04-22 00:02 42.31262 -93.90796 34907 ft 451 kts 69°
2026-04-22 00:03 42.32543 -93.83961 34905 ft 451 kts 69°
2026-04-22 00:03 42.34077 -93.75746 34918 ft 451 kts 69°
2026-04-22 00:04 42.35611 -93.67529 34921 ft 451 kts 69°
2026-04-22 00:04 42.37137 -93.59339 34917 ft 451 kts 69°
2026-04-22 00:05 42.38661 -93.51103 34919 ft 451 kts 69°
2026-04-22 00:05 42.40180 -93.42860 34923 ft 451 kts 69°
2026-04-22 00:06 42.41693 -93.34605 34930 ft 452 kts 69°
2026-04-22 00:06 42.43201 -93.26339 34929 ft 452 kts 69°
2026-04-22 00:07 42.44698 -93.18076 34929 ft 452 kts 69°
2026-04-22 00:07 42.46193 -93.09809 34924 ft 452 kts 69°
2026-04-22 00:08 42.47688 -93.01543 34937 ft 452 kts 69°
2026-04-22 00:08 42.49168 -92.93270 34925 ft 452 kts 69°
2026-04-22 00:09 42.50643 -92.85000 34912 ft 451 kts 69°
2026-04-22 00:09 42.52111 -92.76782 34910 ft 451 kts 69°
2026-04-22 00:10 42.53578 -92.68510 34914 ft 451 kts 69°
2026-04-22 00:10 42.55032 -92.60223 34934 ft 451 kts 69°
2026-04-22 00:11 42.56488 -92.51950 34932 ft 451 kts 69°
2026-04-22 00:11 42.57933 -92.43666 34923 ft 451 kts 69°
2026-04-22 00:12 42.59376 -92.35382 34934 ft 451 kts 69°
2026-04-22 00:12 42.60814 -92.27093 34940 ft 451 kts 69°
2026-04-22 00:13 42.62238 -92.18795 34940 ft 451 kts 69°
2026-04-22 00:13 42.63648 -92.10497 34941 ft 451 kts 69°
2026-04-22 00:14 42.64360 -92.01922 34937 ft 460 kts 78°
2026-04-22 00:14 42.64816 -91.93291 34933 ft 460 kts 78°
2026-04-22 00:15 42.65274 -91.84615 34935 ft 460 kts 78°
2026-04-22 00:15 42.65714 -91.75942 34936 ft 460 kts 78°
2026-04-22 00:16 42.66145 -91.67284 34933 ft 459 kts 78°
2026-04-22 00:16 42.66580 -91.58624 34931 ft 459 kts 78°
2026-04-22 00:17 42.67015 -91.49973 34953 ft 459 kts 78°
2026-04-22 00:17 42.67434 -91.41357 34944 ft 458 kts 78°
2026-04-22 00:18 42.67840 -91.32697 34938 ft 458 kts 78°
2026-04-22 00:18 42.68239 -91.24051 34933 ft 458 kts 78°
2026-04-22 00:19 42.68627 -91.15398 34936 ft 458 kts 78°
2026-04-22 00:19 42.69010 -91.06793 34953 ft 458 kts 78°
2026-04-22 00:20 42.69399 -90.98157 34941 ft 458 kts 78°
2026-04-22 00:20 42.69788 -90.89513 34943 ft 457 kts 78°
2026-04-22 00:21 42.70160 -90.80880 34939 ft 458 kts 78°
2026-04-22 00:21 42.70517 -90.72239 34964 ft 457 kts 78°
2026-04-22 00:22 42.70877 -90.63613 34962 ft 457 kts 78°
2026-04-22 00:22 42.71228 -90.54985 34957 ft 457 kts 78°
2026-04-22 00:23 42.71568 -90.46369 34962 ft 457 kts 78°
2026-04-22 00:23 42.71903 -90.37743 34979 ft 456 kts 78°
2026-04-22 00:24 42.72235 -90.29130 34964 ft 456 kts 78°
2026-04-22 00:24 42.72556 -90.20514 34949 ft 456 kts 78°
2026-04-22 00:25 42.72874 -90.11905 34935 ft 456 kts 78°
2026-04-22 00:25 42.73181 -90.03284 34922 ft 456 kts 79°
2026-04-22 00:26 42.73474 -89.94703 34943 ft 456 kts 79°
2026-04-22 00:26 42.73766 -89.86079 34942 ft 456 kts 79°
2026-04-22 00:26 42.73909 -89.81783 34545 ft 454 kts 79°
2026-04-22 00:27 42.74052 -89.77484 33941 ft 456 kts 79°
2026-04-22 00:27 42.74196 -89.73172 33171 ft 457 kts 79°
2026-04-22 00:27 42.74342 -89.68837 32308 ft 461 kts 81°
2026-04-22 00:27 42.74485 -89.64458 31421 ft 465 kts 81°
2026-04-22 00:28 42.74626 -89.60044 30556 ft 469 kts 82°
2026-04-22 00:28 42.74762 -89.55622 29901 ft 467 kts 83°
2026-04-22 00:28 42.74894 -89.51218 29176 ft 464 kts 83°
2026-04-22 00:28 42.75023 -89.46851 28507 ft 460 kts 83°
2026-04-22 00:29 42.75150 -89.42527 27869 ft 456 kts 83°
2026-04-22 00:29 42.75275 -89.38229 27251 ft 452 kts 84°
2026-04-22 00:29 42.75401 -89.33974 26638 ft 448 kts 84°
2026-04-22 00:29 42.75525 -89.29753 26035 ft 444 kts 84°
2026-04-22 00:30 42.75647 -89.25571 25441 ft 441 kts 84°
2026-04-22 00:30 42.75764 -89.21422 24872 ft 437 kts 85°
2026-04-22 00:30 42.75878 -89.17293 24309 ft 434 kts 85°
2026-04-22 00:30 42.75983 -89.13198 23773 ft 431 kts 85°
2026-04-22 00:31 42.76073 -89.09133 23220 ft 428 kts 86°
2026-04-22 00:31 42.76153 -89.05092 22644 ft 425 kts 86°
2026-04-22 00:31 42.76230 -89.01140 22106 ft 422 kts 85°
2026-04-22 00:31 42.76337 -88.97174 21566 ft 418 kts 84°
2026-04-22 00:32 42.76481 -88.93236 21022 ft 414 kts 84°
2026-04-22 00:32 42.76643 -88.89342 20481 ft 411 kts 84°
2026-04-22 00:32 42.76810 -88.85479 19939 ft 408 kts 84°
2026-04-22 00:32 42.76949 -88.81641 19416 ft 404 kts 85°
2026-04-22 00:33 42.77056 -88.77831 18882 ft 401 kts 85°
2026-04-22 00:33 42.77139 -88.74053 18350 ft 398 kts 85°
2026-04-22 00:33 42.77216 -88.70298 17751 ft 395 kts 85°
2026-04-22 00:33 42.77374 -88.66591 17144 ft 390 kts 79°
2026-04-22 00:34 42.77920 -88.63029 16815 ft 377 kts 72°
2026-04-22 00:34 42.78530 -88.59640 16688 ft 362 kts 73°
2026-04-22 00:34 42.79105 -88.56364 16554 ft 349 kts 73°
2026-04-22 00:34 42.79656 -88.53188 16266 ft 342 kts 73°
2026-04-22 00:35 42.80201 -88.50047 15896 ft 339 kts 73°
2026-04-22 00:35 42.80741 -88.46931 15502 ft 337 kts 73°
2026-04-22 00:35 42.81279 -88.43826 15099 ft 336 kts 73°
2026-04-22 00:35 42.81872 -88.40761 14714 ft 332 kts 67°
2026-04-22 00:36 42.82631 -88.37792 14331 ft 331 kts 66°
2026-04-22 00:36 42.83384 -88.34832 13957 ft 330 kts 66°
2026-04-22 00:36 42.84121 -88.31930 13574 ft 328 kts 66°
2026-04-22 00:36 42.84874 -88.28962 13180 ft 326 kts 67°
2026-04-22 00:37 42.85360 -88.25980 12812 ft 328 kts 81°
2026-04-22 00:37 42.85570 -88.22898 12453 ft 325 kts 81°
2026-04-22 00:37 42.85782 -88.19839 12096 ft 322 kts 81°
2026-04-22 00:37 42.85996 -88.16810 11746 ft 319 kts 81°
2026-04-22 00:38 42.86211 -88.13815 11398 ft 316 kts 81°
2026-04-22 00:38 42.86424 -88.10844 11060 ft 314 kts 81°
2026-04-22 00:38 42.86635 -88.07903 10659 ft 310 kts 81°
2026-04-22 00:38 42.86842 -88.04990 10202 ft 307 kts 81°
2026-04-22 00:39 42.87044 -88.02111 9693 ft 303 kts 81°
2026-04-22 00:39 42.87241 -87.99267 9143 ft 300 kts 81°
2026-04-22 00:39 42.87436 -87.96453 8613 ft 297 kts 81°
2026-04-22 00:39 42.87629 -87.93664 8076 ft 294 kts 81°
2026-04-22 00:40 42.87820 -87.90900 7598 ft 289 kts 81°
2026-04-22 00:40 42.87998 -87.88255 7474 ft 272 kts 81°
2026-04-22 00:40 42.88163 -87.85762 7350 ft 256 kts 81°
2026-04-22 00:40 42.88320 -87.83421 7227 ft 240 kts 81°
2026-04-22 00:41 42.88487 -87.81260 7028 ft 226 kts 75°
2026-04-22 00:41 42.88923 -87.79247 6664 ft 219 kts 66°
2026-04-22 00:41 42.89411 -87.77288 6258 ft 217 kts 67°
2026-04-22 00:41 42.89890 -87.75335 5832 ft 217 kts 68°
2026-04-22 00:42 42.90445 -87.73452 5406 ft 212 kts 54°
2026-04-22 00:42 42.91382 -87.71953 4976 ft 205 kts 34°
2026-04-22 00:42 42.92595 -87.71011 4640 ft 194 kts 15°
2026-04-22 00:42 42.93862 -87.70660 4396 ft 180 kts 358°
2026-04-22 00:43 42.95043 -87.70815 4295 ft 163 kts 342°
2026-04-22 00:43 42.96050 -87.71390 4147 ft 151 kts 325°
2026-04-22 00:43 42.96822 -87.72279 3949 ft 143 kts 309°
2026-04-22 00:43 42.97363 -87.73402 3678 ft 142 kts 294°
2026-04-22 00:44 42.97649 -87.74664 3384 ft 139 kts 279°
2026-04-22 00:44 42.97669 -87.75995 2999 ft 143 kts 264°
2026-04-22 00:44 42.97415 -87.77333 2568 ft 146 kts 253°
2026-04-22 00:44 42.97104 -87.78602 2347 ft 134 kts 253°
2026-04-22 00:45 42.96816 -87.79783 2158 ft 128 kts 253°
2026-04-22 00:45 42.96537 -87.80928 1978 ft 127 kts 253°
2026-04-22 00:45 42.96265 -87.82053 1808 ft 125 kts 253°
2026-04-22 00:45 42.95998 -87.83157 1642 ft 120 kts 253°
2026-04-22 00:46 42.95733 -87.84253 1465 ft 122 kts 252°
2026-04-22 00:46 42.95467 -87.85351 1304 ft 121 kts 253°
2026-04-22 00:46 42.95199 -87.86447 1100 ft 121 kts 251°
2026-04-22 00:46 42.94939 -87.87523 903 ft 121 kts 253°
2026-04-22 00:47 42.94681 -87.88605 766 ft 119 kts 249°
2026-04-22 00:47 42.94435 -87.89630 690 ft 100 kts 252°
2026-04-22 00:47 42.94250 -87.90366 685 ft 58 kts 252°
2026-04-22 00:47 42.94187 -87.90712 685 ft 26 kts 297°
2026-04-22 00:48 42.94276 -87.90709 685 ft 18 kts 43°
2026-04-22 00:48 42.94380 -87.90572 687 ft 17 kts 46°
2026-04-22 00:48 42.94428 -87.90412 688 ft 20 kts 72°
2026-04-22 00:48 42.94468 -87.90224 688 ft 21 kts 81°
2026-04-22 00:49 42.94506 -87.90032 684 ft 21 kts 71°
2026-04-22 00:49 42.94537 -87.89910 685 ft 20 kts 65°
2026-04-22 00:49 42.94613 -87.89755 684 ft 14 kts 37°
2026-04-22 00:49 42.94709 -87.89729 685 ft 15 kts
2026-04-22 00:50 42.94824 -87.89715 685 ft 18 kts
2026-04-22 00:50 42.94951 -87.89731 683 ft 19 kts 321°
2026-04-22 00:50 42.94984 -87.89847 688 ft 10 kts 248°
2026-04-22 00:50 42.94963 -87.89932 681 ft 10 kts 250°
2026-04-22 00:51 42.94918 -87.90009 686 ft 11 kts 218°
2026-04-22 00:51 42.94884 -87.90068 687 ft 5 kts 282°
2026-04-22 00:51 42.94896 -87.90081 686 ft 1 kts 327°
2026-04-22 00:51 42.94911 -87.90091 684 ft 4 kts 334°
2026-04-22 00:52 42.94922 -87.90099 685 ft 1 kts 333°
2026-04-22 00:52 42.94923 -87.90099 686 ft 0 kts 333°
2026-04-22 00:54 42.97428 -87.73601 3627 ft 142 kts 292°
2026-04-22 00:54 42.94727 -87.88421 795 ft 120 kts 250°
2026-04-22 00:54 42.94472 -87.89473 686 ft 106 kts 251°
2026-04-22 00:55 42.94272 -87.90271 685 ft 66 kts 251°
2026-04-22 00:55 42.94180 -87.90669 684 ft 29 kts 260°
2026-04-22 00:55 42.94366 -87.90591 687 ft 17 kts 43°
2026-04-22 00:56 42.94890 -87.87731 878 ft 120 kts 250°
2026-04-22 00:56 42.94631 -87.88799 734 ft 119 kts 249°
2026-04-22 00:56 42.94395 -87.89792 684 ft 98 kts 251°
2026-04-22 00:56 42.94629 -87.88809 733 ft 119 kts 249°
2026-04-22 00:57 42.94395 -87.89794 684 ft 98 kts 251°
2026-04-22 00:57 42.94229 -87.90454 688 ft 49 kts 252°
2026-04-22 00:57 42.94211 -87.90737 685 ft 23 kts 338°
2026-04-22 00:57 42.94314 -87.90657 687 ft 15 kts 43°